Погода в Еленинке

Россия / Челябинская область     53°06′58″N   59°52′26″E
темп.,
°C
ветер,
м/с
пор.,
м/с
влажн.,
%
обл.,
%
осадки,
мм/ч
давл.,
гПа
погр.,
м
9 мая, вс
вс923:00+13в2240100 0.0 101532
02:00+10ююв236097 0.0 101542
05:00+10ююз1165100 0.0 101610
08:00+13с365365 0.0 1015480
11:00+17ссв463894 0.0 10141992
14:00+18ссв6736100 0.0 10142216
17:00+19ссв563445 0.0 10142358
20:00+16ссз485081 0.0 1015157
10 мая, пн
пн1023:00+12св396558 0.0 1017189
02:00+11св4106873 0.0 1018254
05:00+11св5127780 0.0 1019304
08:00+14ссв5106285 0.0 1020668
11:00+18ссв78465 0.0 10201595
14:00+20св67335 0.0 10202236
17:00+20св67315 0.0 10202303
20:00+16св47440 0.0 1022141
11 мая, вт
вт1123:00+12всв47460 0.0 1024117
02:00+10в46550 0.0 1025102
05:00+9в34580 0.0 102750
08:00+12всв45455 0.0 1028277
11:00+16всв44331 0.0 10281406
14:00+19всв3327100 0.0 10281697
17:00+19св2327100 0.0 10281831
20:00+16св3341100 0.0 102835
12 мая, ср
ср1223:00+13всв2239100 0.0 102912
02:00+12юв114261 0.0 103010
05:00+10з11460 0.0 103010
08:00+15зсз11400 0.0 1030138
11:00+20зсз11290 0.0 10301339
14:00+22сз22245 0.0 10291921
17:00+22сз12235 0.0 10282104
20:00+19зюз113372 0.0 102811
13 мая, чт
чт1323:00+17з11335 0.0 102811
02:00+15сз33395 0.0 102824
05:00+13ссв345960 0.0 102956
08:00+17св355585 0.0 1029253
11:00+22всв343975 0.0 10291447
14:00+24ссв333363 0.0 10282085
17:00+25с343221 0.0 10272202
20:00+21св33455 0.0 102735